User: anonymous   Login
Location: Luna
(33.8188°N, 108.9564°W)
Time: 07:35:40
(UTC+00:00)
Language:

QB50P2 - Orbit

View from above orbital plane
View from above orbital plane
View from above satellite
View from above satellite

Ground track
Ground track

The orbit data is extracted from the following two-line orbital elements,

1 40032U 14033Y   24113.74461681  .00016130  00000-0  13875-2 0  9995
2 40032  98.0036  64.7872 0009112 354.9621   5.1506 14.97444956534376
Epoch (UTC): 22 April 2024 17:52:14
Eccentricity: 0.0009112
inclination: 98.0036°
perigee height: 568 km
apogee height: 581 km
right ascension of ascending node: 64.7872°
argument of perigee: 354.9621°
revolutions per day: 14.97444956
mean anomaly at epoch: 5.1506°
orbit number at epoch: 53437

The dashed part of the orbit path shows where the satellite is in the earth's shadow,  

DLR